• In Austria
  • List of Countries
  • For 7 days
  • Water Temperature
  • Satellite Maps
  • Weather Map
  • News
  • Weather Widgets
  • user-avatar
    Login

    Hourly Weather Petraki

    Today, 25 September, Tuesday

    Time Temperature Precipitation Wind Pressure Humidity
    00:00 +6°C° 0.1 mm 5 mps 731 mmHg 91%
    01:00 +5°C° 0.1 mm 5 mps 732 mmHg 90%
    02:00 +5°C° 0 mm 4 mps 733 mmHg 91%
    03:00 +4°C° 0 mm 4 mps 733 mmHg 91%
    04:00 +4°C° 0 mm 4 mps 734 mmHg 91%
    05:00 +2°C° 0 mm 5 mps 735 mmHg 91%
    06:00 +3°C° 0 mm 5 mps 735 mmHg 90%
    07:00 +3°C° 0 mm 5 mps 736 mmHg 88%
    08:00 +5°C° 0 mm 5 mps 737 mmHg 86%
    09:00 +5°C° 0 mm 5 mps 738 mmHg 80%
    10:00 +6°C° 0 mm 5 mps 738 mmHg 75%
    11:00 +7°C° 0 mm 5 mps 739 mmHg 70%
    12:00 +7°C° 0.1 mm 5 mps 739 mmHg 67%
    13:00 +8°C° 0.1 mm 5 mps 740 mmHg 64%
    14:00 +8°C° 0.1 mm 5 mps 741 mmHg 62%
    15:00 +7°C° 0.1 mm 5 mps 741 mmHg 65%
    16:00 +7°C° 0.1 mm 4 mps 742 mmHg 68%
    17:00 +6°C° 0.1 mm 4 mps 742 mmHg 71%
    18:00 +5°C° 0 mm 4 mps 743 mmHg 73%
    19:00 +4°C° 0 mm 4 mps 744 mmHg 75%
    20:00 +3°C° 0 mm 4 mps 744 mmHg 76%
    21:00 +3°C° 0 mm 3 mps 745 mmHg 76%
    22:00 +2°C° 0 mm 3 mps 746 mmHg 76%
    23:00 +2°C° 0 mm 3 mps 746 mmHg 76%

    Tomorrow, 26 September, Wednesday

    Time Temperature Precipitation Wind Pressure Humidity
    00:00 +2°C° 0 mm 3 mps 747 mmHg 79%
    01:00 +1°C° 0 mm 3 mps 747 mmHg 82%
    02:00 +1°C° 0 mm 3 mps 747 mmHg 84%
    03:00 +1°C° 0 mm 3 mps 747 mmHg 86%
    04:00 +1°C° 0 mm 3 mps 748 mmHg 88%
    05:00 +1°C° 0 mm 3 mps 748 mmHg 90%
    06:00 +2°C° 0 mm 3 mps 748 mmHg 86%
    07:00 +3°C° 0 mm 3 mps 748 mmHg 82%
    08:00 +4°C° 0 mm 3 mps 748 mmHg 78%
    09:00 +6°C° 0 mm 4 mps 748 mmHg 71%
    10:00 +7°C° 0 mm 4 mps 748 mmHg 65%
    11:00 +9°C° 0 mm 5 mps 747 mmHg 58%
    12:00 +9°C° 0 mm 5 mps 747 mmHg 58%
    13:00 +10°C° 0 mm 5 mps 746 mmHg 57%
    14:00 +10°C° 0 mm 6 mps 745 mmHg 56%
    15:00 +9°C° 0.3 mm 6 mps 744 mmHg 65%
    16:00 +8°C° 0.3 mm 6 mps 743 mmHg 74%
    17:00 +7°C° 0.3 mm 6 mps 742 mmHg 82%
    18:00 +5°C° 1.3 mm 7 mps 741 mmHg 84%
    19:00 +5°C° 1.3 mm 7 mps 740 mmHg 87%
    20:00 +5°C° 1.3 mm 8 mps 739 mmHg 89%
    21:00 +5°C° 1.2 mm 8 mps 738 mmHg 89%
    22:00 +5°C° 1.2 mm 8 mps 737 mmHg 89%
    23:00 +5°C° 1.2 mm 8 mps 735 mmHg 89%

    Day after tomorrow, 27 September, Thursday

    Time Temperature Precipitation Wind Pressure Humidity
    00:00 +6°C° 0.6 mm 8 mps 735 mmHg 90%
    01:00 +6°C° 0.6 mm 8 mps 734 mmHg 90%
    02:00 +6°C° 0.6 mm 8 mps 733 mmHg 90%
    03:00 +8°C° 0.9 mm 7 mps 733 mmHg 91%
    04:00 +8°C° 0.9 mm 5 mps 733 mmHg 92%
    05:00 +8°C° 0.9 mm 4 mps 733 mmHg 93%
    06:00 +8°C° 0.1 mm 4 mps 734 mmHg 90%
    07:00 +7°C° 0.1 mm 4 mps 734 mmHg 87%
    08:00 +7°C° 0.1 mm 4 mps 734 mmHg 85%
    09:00 +8°C° 0 mm 5 mps 735 mmHg 76%
    10:00 +9°C° 0 mm 5 mps 735 mmHg 68%
    11:00 +10°C° 0 mm 6 mps 735 mmHg 60%
    12:00 +10°C° 0.1 mm 6 mps 735 mmHg 57%
    13:00 +10°C° 0.1 mm 6 mps 736 mmHg 55%
    14:00 +11°C° 0.1 mm 7 mps 736 mmHg 53%
    15:00 +10°C° 0.1 mm 6 mps 736 mmHg 58%
    16:00 +10°C° 0.1 mm 4 mps 737 mmHg 64%
    17:00 +9°C° 0.1 mm 3 mps 737 mmHg 69%
    18:00 +8°C° 0 mm 3 mps 737 mmHg 70%
    19:00 +8°C° 0 mm 3 mps 738 mmHg 72%
    20:00 +7°C° 0 mm 3 mps 738 mmHg 73%
    21:00 +5°C° 0 mm 3 mps 738 mmHg 75%
    22:00 +5°C° 0 mm 3 mps 739 mmHg 76%
    23:00 +4°C° 0 mm 3 mps 739 mmHg 78%

    28 September, Friday

    Time Temperature Precipitation Wind Pressure Humidity
    00:00 +4°C° 0 mm 3 mps 738 mmHg 80%
    01:00 +4°C° 0 mm 3 mps 738 mmHg 82%
    02:00 +3°C° 0 mm 3 mps 738 mmHg 84%
    03:00 +4°C° 0.6 mm 3 mps 736 mmHg 86%
    04:00 +5°C° 0.6 mm 4 mps 735 mmHg 89%
    05:00 +6°C° 0.6 mm 5 mps 733 mmHg 91%
    06:00 +7°C° 1.2 mm 6 mps 732 mmHg 90%
    07:00 +9°C° 1.2 mm 7 mps 731 mmHg 90%
    08:00 +11°C° 1.2 mm 7 mps 729 mmHg 90%
    09:00 +11°C° 1 mm 7 mps 729 mmHg 88%
    10:00 +11°C° 1 mm 7 mps 729 mmHg 86%
    11:00 +11°C° 1 mm 7 mps 729 mmHg 84%
    12:00 +9°C° 0.5 mm 7 mps 730 mmHg 84%
    13:00 +8°C° 0.5 mm 6 mps 731 mmHg 85%
    14:00 +5°C° 0.5 mm 6 mps 732 mmHg 86%
    15:00 +6°C° 0 mm 5 mps 734 mmHg 85%
    16:00 +5°C° 0 mm 4 mps 735 mmHg 84%
    17:00 +5°C° 0 mm 3 mps 737 mmHg 84%
    18:00 +5°C° 0 mm 2 mps 738 mmHg 86%
    19:00 +4°C° 0 mm 2 mps 738 mmHg 89%
    20:00 +3°C° 0 mm 2 mps 739 mmHg 92%
    21:00 +3°C° 0.1 mm 2 mps 740 mmHg 92%
    22:00 +3°C° 0.1 mm 2 mps 740 mmHg 93%
    23:00 +3°C° 0.1 mm 2 mps 741 mmHg 93%

    29 September, Saturday

    Time Temperature Precipitation Wind Pressure Humidity
    00:00 +3°C° 0.1 mm 2 mps 741 mmHg 94%
    01:00 +3°C° 0.1 mm 2 mps 741 mmHg 95%
    02:00 +3°C° 0.1 mm 2 mps 742 mmHg 96%
    03:00 +2°C° 0 mm 2 mps 742 mmHg 97%
    04:00 +1°C° 0 mm 2 mps 743 mmHg 97%
    05:00 +1°C° 0 mm 2 mps 743 mmHg 97%
    06:00 +1°C° 0 mm 2 mps 744 mmHg 94%
    07:00 +2°C° 0 mm 2 mps 745 mmHg 91%
    08:00 +3°C° 0 mm 2 mps 745 mmHg 88%
    09:00 +4°C° 0 mm 2 mps 746 mmHg 81%
    10:00 +5°C° 0 mm 2 mps 746 mmHg 74%
    11:00 +6°C° 0 mm 2 mps 747 mmHg 66%
    12:00 +5°C° 0.1 mm 3 mps 747 mmHg 63%
    13:00 +7°C° 0.1 mm 3 mps 747 mmHg 59%
    14:00 +7°C° 0.1 mm 3 mps 748 mmHg 56%
    15:00 +6°C° 0 mm 2 mps 748 mmHg 60%
    16:00 +5°C° 0 mm 2 mps 748 mmHg 63%
    17:00 +5°C° 0 mm 1 mps 748 mmHg 67%
    18:00 +4°C° 0 mm 1 mps 749 mmHg 70%
    19:00 +3°C° 0 mm 1 mps 749 mmHg 73%
    20:00 +2°C° 0 mm 1 mps 750 mmHg 76%
    21:00 +2°C° 0 mm 1 mps 750 mmHg 77%
    22:00 +1°C° 0 mm 1 mps 750 mmHg 78%
    23:00 +1°C° 0 mm 1 mps 750 mmHg 80%

    30 September, Sunday

    Time Temperature Precipitation Wind Pressure Humidity
    00:00 -1°C° 0 mm 2 mps 750 mmHg 80%
    01:00 -1°C° 0 mm 2 mps 750 mmHg 81%
    02:00 -1°C° 0 mm 2 mps 750 mmHg 82%
    03:00 -1°C° 0 mm 3 mps 750 mmHg 81%
    04:00 0°C° 0 mm 3 mps 750 mmHg 80%
    05:00 0°C° 0 mm 3 mps 750 mmHg 79%
    06:00 0°C° 0 mm 4 mps 749 mmHg 77%
    07:00 +1°C° 0 mm 4 mps 749 mmHg 75%
    08:00 +3°C° 0 mm 4 mps 749 mmHg 74%
    09:00 +3°C° 0 mm 5 mps 749 mmHg 68%
    10:00 +6°C° 0 mm 5 mps 749 mmHg 63%
    11:00 +8°C° 0 mm 5 mps 749 mmHg 58%
    12:00 +8°C° 0 mm 5 mps 748 mmHg 58%
    13:00 +9°C° 0 mm 5 mps 748 mmHg 57%
    14:00 +9°C° 0 mm 5 mps 748 mmHg 56%
    15:00 +10°C° 0 mm 4 mps 747 mmHg 61%
    16:00 +8°C° 0 mm 4 mps 747 mmHg 65%
    17:00 +8°C° 0 mm 3 mps 747 mmHg 69%
    18:00 +8°C° 0 mm 3 mps 747 mmHg 70%
    19:00 +8°C° 0 mm 3 mps 747 mmHg 70%
    20:00 +6°C° 0 mm 4 mps 747 mmHg 70%
    21:00 +6°C° 0 mm 4 mps 747 mmHg 71%
    22:00 +6°C° 0 mm 4 mps 747 mmHg 71%
    23:00 +6°C° 0 mm 4 mps 747 mmHg 71%
    Show more